WXM80 ListenWXM80 Stop

You find our weather info also at:

UK Metoffice

WeatherCloud

Weather Underground

Northeastern Weather Network

AWEKAS

Citizen Weather Observer Program (CWOP)

HAMweather, WeatherForYou, PWS Weather


Weather Underground History page Text

Daily Summary for August 31, 2017 Units:  English    Metric   Both
« Previous Day
Next Day »
Daily Weekly Monthly Yearly Custom
  High: Low: Average:
Temperature: 85.5 °F 63.5 °F 71.4 °F
Dew Point: 68.9 °F 53.4 °F 61.7 °F
Humidity: 90 % 50 % 73 %
Wind Speed: 8.3 mph 0.0 mph 2.3 mph
Wind Gust: 16.0 mph - -
Wind:- - WSW
Pressure: 29.93 in 29.81 in -
Precipitation: 0.00 in    
Historical Graphs
 
 
Tabular Data for August 31, 2017
Time Temperature Dew Point Pressure Wind Wind Speed Wind Gust Humidity Rainfall Rate (Hourly)
00:04 65.1 °F 59.5 °F 29.86 in WSW 0.2 mph 1.2 mph 82 % 0.00 in
00:09 65.2 °F 59.6 °F 29.86 in SSW 0.3 mph 3.5 mph 82 % 0.00 in
00:14 65.2 °F 59.6 °F 29.86 in SW 0.4 mph 1.2 mph 82 % 0.00 in
00:19 65.2 °F 59.6 °F 29.86 in SW 0.7 mph 3.5 mph 82 % 0.00 in
00:24 65.2 °F 59.9 °F 29.86 in SW 0.5 mph 2.3 mph 83 % 0.00 in
00:29 65.2 °F 59.9 °F 29.86 in SW 0.1 mph 1.2 mph 83 % 0.00 in
00:34 65.2 °F 59.9 °F 29.86 in SW 0.1 mph 1.2 mph 83 % 0.00 in
00:39 65.2 °F 59.9 °F 29.86 in Calm   1.2 mph 83 % 0.00 in
00:44 65.2 °F 59.9 °F 29.86 in Calm   1.2 mph 83 % 0.00 in
00:49 65.2 °F 59.9 °F 29.86 in West 1.1 mph 3.5 mph 83 % 0.00 in
00:55 65.2 °F 59.9 °F 29.86 in West 1.2 mph 2.0 mph 83 % 0.00 in
01:00 65.2 °F 59.9 °F 29.86 in Calm   1.2 mph 83 % 0.00 in
01:05 65.2 °F 60.2 °F 29.86 in WSW 0.2 mph 3.5 mph 84 % 0.00 in
01:10 65.2 °F 60.2 °F 29.86 in SW 1.9 mph 3.5 mph 84 % 0.00 in
01:15 65.2 °F 60.2 °F 29.86 in WSW 1.7 mph 5.0 mph 84 % 0.00 in
01:20 65.2 °F 60.2 °F 29.85 in WSW 1.2 mph 3.5 mph 84 % 0.00 in
01:25 65.3 °F 60.3 °F 29.86 in SW 0.9 mph 4.0 mph 84 % 0.00 in
01:30 65.3 °F 60.3 °F 29.86 in WSW 1.1 mph 3.5 mph 84 % 0.00 in
01:35 65.4 °F 60.4 °F 29.86 in WSW 1.9 mph 3.5 mph 84 % 0.00 in
01:40 65.4 °F 60.4 °F 29.86 in SSW 1.0 mph 5.0 mph 84 % 0.00 in
01:45 65.5 °F 60.5 °F 29.86 in SW 1.4 mph 4.6 mph 84 % 0.00 in
01:50 65.6 °F 60.6 °F 29.86 in WSW 0.1 mph 1.2 mph 84 % 0.00 in
01:55 65.7 °F 60.7 °F 29.85 in WSW 0.4 mph 2.3 mph 84 % 0.00 in
02:00 65.7 °F 60.4 °F 29.85 in SW 1.7 mph 3.5 mph 83 % 0.00 in
02:05 65.8 °F 60.5 °F 29.85 in SW 0.1 mph 1.2 mph 83 % 0.00 in
02:10 65.8 °F 60.5 °F 29.85 in WSW 0.6 mph 1.2 mph 83 % 0.00 in
02:15 65.8 °F 60.5 °F 29.85 in WSW 1.4 mph 3.5 mph 83 % 0.00 in
02:20 65.9 °F 60.6 °F 29.85 in WSW 1.1 mph 4.0 mph 83 % 0.00 in
02:25 65.9 °F 60.6 °F 29.85 in WSW 1.8 mph 3.5 mph 83 % 0.00 in
02:30 66.0 °F 60.7 °F 29.84 in WSW 0.9 mph 3.5 mph 83 % 0.00 in
02:35 66.0 °F 60.7 °F 29.84 in WSW 1.2 mph 2.3 mph 83 % 0.00 in
02:40 66.0 °F 60.7 °F 29.84 in WSW 0.1 mph 1.2 mph 83 % 0.00 in
02:45 66.0 °F 60.7 °F 29.84 in West 0.2 mph 1.2 mph 83 % 0.00 in
02:50 66.0 °F 60.7 °F 29.84 in Calm   1.2 mph 83 % 0.00 in
02:55 66.0 °F 60.3 °F 29.84 in SW 0.7 mph 3.5 mph 82 % 0.00 in
03:00 65.9 °F 60.2 °F 29.84 in Calm   1.2 mph 82 % 0.00 in
03:05 65.8 °F 60.2 °F 29.84 in SW 0.8 mph 2.3 mph 82 % 0.00 in
03:10 65.8 °F 60.5 °F 29.84 in Calm   1.0 mph 83 % 0.00 in
03:16 65.7 °F 60.4 °F 29.84 in Calm   3.0 mph 83 % 0.00 in
03:21 65.6 °F 60.3 °F 29.84 in SW 1.0 mph 2.0 mph 83 % 0.00 in
03:26 65.5 °F 60.2 °F 29.84 in Calm   3.0 mph 83 % 0.00 in
03:31 65.4 °F 60.1 °F 29.84 in Calm   3.0 mph 83 % 0.00 in
03:36 65.3 °F 60.3 °F 29.84 in West 0.5 mph 3.5 mph 84 % 0.00 in
03:41 65.2 °F 60.2 °F 29.84 in West 1.0 mph 2.0 mph 84 % 0.00 in
03:46 65.1 °F 60.1 °F 29.84 in SW 0.7 mph 3.5 mph 84 % 0.00 in
03:51 65.0 °F 60.1 °F 29.84 in WSW 1.0 mph 4.0 mph 84 % 0.00 in
03:56 65.0 °F 60.4 °F 29.84 in WSW 1.0 mph 4.0 mph 85 % 0.00 in
04:01 65.0 °F 60.4 °F 29.84 in WSW 0.5 mph 3.5 mph 85 % 0.00 in
04:06 64.9 °F 60.3 °F 29.85 in WSW 0.1 mph 1.2 mph 85 % 0.00 in
04:11 64.9 °F 60.3 °F 29.84 in Calm     85 % 0.00 in
04:16 64.8 °F 60.2 °F 29.84 in Calm     85 % 0.00 in
04:21 64.7 °F 60.1 °F 29.84 in Calm   1.2 mph 85 % 0.00 in
04:26 64.7 °F 60.1 °F 29.85 in WSW 0.2 mph 1.2 mph 85 % 0.00 in
04:31 64.6 °F 60.0 °F 29.84 in Calm     85 % 0.00 in
04:36 64.5 °F 59.9 °F 29.84 in SW 0.4 mph 2.3 mph 85 % 0.00 in
04:41 64.4 °F 60.1 °F 29.84 in Calm     86 % 0.00 in
04:46 64.3 °F 60.0 °F 29.84 in SW 1.1 mph 2.3 mph 86 % 0.00 in
04:51 64.2 °F 59.9 °F 29.84 in WSW 0.7 mph 3.5 mph 86 % 0.00 in
04:56 64.1 °F 60.2 °F 29.84 in South 2.5 mph 4.0 mph 87 % 0.00 in
04:58 64.1 °F 60.2 °F 29.84 in WSW 2.2 mph 6.9 mph 87 % 0.00 in
05:03 64.1 °F 60.2 °F 29.84 in West 2.5 mph 6.9 mph 87 % 0.00 in
05:08 64.1 °F 60.5 °F 29.84 in WSW 1.8 mph 3.5 mph 88 % 0.00 in
05:13 64.1 °F 60.5 °F 29.84 in SW 0.9 mph 2.3 mph 88 % 0.00 in
05:18 64.1 °F 60.5 °F 29.84 in SSW 2.6 mph 4.6 mph 88 % 0.00 in
05:23 64.1 °F 60.5 °F 29.85 in West 2.5 mph 4.6 mph 88 % 0.00 in
05:28 64.1 °F 60.5 °F 29.85 in SW 1.6 mph 3.5 mph 88 % 0.00 in
05:33 64.2 °F 60.2 °F 29.84 in WSW 1.6 mph 3.5 mph 87 % 0.00 in
05:38 64.2 °F 60.2 °F 29.85 in SW 1.6 mph 3.0 mph 87 % 0.00 in
05:43 64.2 °F 60.2 °F 29.85 in SW 0.4 mph 2.3 mph 87 % 0.00 in
05:48 64.2 °F 60.2 °F 29.85 in SSW 0.1 mph 3.5 mph 87 % 0.00 in
05:53 64.1 °F 60.2 °F 29.85 in SW 0.7 mph 3.5 mph 87 % 0.00 in
05:58 64.1 °F 60.2 °F 29.85 in West 0.1 mph 2.3 mph 87 % 0.00 in
06:03 64.0 °F 60.1 °F 29.86 in Calm   2.3 mph 87 % 0.00 in
06:08 64.0 °F 60.1 °F 29.86 in WSW 0.4 mph 4.0 mph 87 % 0.00 in
06:13 63.9 °F 60.0 °F 29.86 in Calm   1.2 mph 87 % 0.00 in
06:18 63.9 °F 60.0 °F 29.86 in Calm     87 % 0.00 in
06:23 63.8 °F 59.9 °F 29.86 in WSW 0.1 mph 2.3 mph 87 % 0.00 in
06:28 63.8 °F 59.9 °F 29.86 in WSW 0.6 mph 3.5 mph 87 % 0.00 in
06:33 63.7 °F 59.8 °F 29.86 in WSW 0.3 mph 3.5 mph 87 % 0.00 in
06:39 63.6 °F 60.0 °F 29.86 in SW 1.5 mph 3.5 mph 88 % 0.00 in
06:44 63.6 °F 60.0 °F 29.87 in Calm   1.2 mph 88 % 0.00 in
06:49 63.6 °F 60.0 °F 29.87 in SW 0.3 mph 2.3 mph 88 % 0.00 in
06:54 63.5 °F 59.9 °F 29.86 in SW 1.3 mph 3.5 mph 88 % 0.00 in
06:59 63.5 °F 60.2 °F 29.87 in SW 2.3 mph 3.5 mph 89 % 0.00 in
07:04 63.5 °F 60.2 °F 29.87 in SW 0.5 mph 2.0 mph 89 % 0.00 in
07:09 63.5 °F 60.2 °F 29.87 in SW 1.3 mph 2.3 mph 89 % 0.00 in
07:14 63.5 °F 60.2 °F 29.87 in SW 0.6 mph 2.3 mph 89 % 0.00 in
07:19 63.6 °F 60.3 °F 29.87 in SW 0.9 mph 3.5 mph 89 % 0.00 in
07:24 63.6 °F 60.3 °F 29.87 in SW 0.2 mph 3.5 mph 89 % 0.00 in
07:29 63.6 °F 60.3 °F 29.87 in Calm     89 % 0.00 in
07:34 63.7 °F 60.7 °F 29.87 in SW 1.9 mph 3.5 mph 90 % 0.00 in
07:39 63.8 °F 60.8 °F 29.87 in SW 0.5 mph 2.3 mph 90 % 0.00 in
07:44 63.9 °F 60.9 °F 29.87 in SW 0.7 mph 2.3 mph 90 % 0.00 in
07:49 64.0 °F 61.0 °F 29.88 in SW 0.9 mph 2.3 mph 90 % 0.00 in
07:54 64.2 °F 61.2 °F 29.87 in SW 0.8 mph 2.3 mph 90 % 0.00 in
07:59 64.4 °F 61.4 °F 29.87 in WSW 0.5 mph 3.5 mph 90 % 0.00 in
08:04 64.7 °F 61.7 °F 29.87 in West 4.1 mph 8.1 mph 90 % 0.00 in
08:09 65.0 °F 61.7 °F 29.87 in WSW 1.3 mph 2.3 mph 89 % 0.00 in
08:14 65.3 °F 62.0 °F 29.87 in WSW 0.2 mph 3.5 mph 89 % 0.00 in
08:19 65.6 °F 62.3 °F 29.87 in Calm     89 % 0.00 in
08:24 65.9 °F 62.6 °F 29.87 in West 2.8 mph 4.6 mph 89 % 0.00 in
08:29 66.2 °F 62.5 °F 29.87 in SSW 3.5 mph 6.0 mph 88 % 0.00 in
08:34 66.5 °F 62.8 °F 29.87 in WNW 3.2 mph 5.8 mph 88 % 0.00 in
08:39 66.8 °F 62.8 °F 29.87 in SW 1.7 mph 4.6 mph 87 % 0.00 in
08:44 67.1 °F 62.8 °F 29.87 in SW 2.3 mph 3.0 mph 86 % 0.00 in
08:49 67.5 °F 63.2 °F 29.87 in West 2.2 mph 3.0 mph 86 % 0.00 in
08:54 67.8 °F 63.1 °F 29.87 in WSW 0.8 mph 4.6 mph 85 % 0.00 in
08:59 68.1 °F 63.1 °F 29.87 in West 4.1 mph 5.8 mph 84 % 0.00 in
09:04 68.5 °F 63.1 °F 29.87 in WSW 6.2 mph 9.2 mph 83 % 0.00 in
09:09 68.8 °F 62.7 °F 29.87 in SW 4.9 mph 8.0 mph 81 % 0.00 in
09:14 69.1 °F 62.7 °F 29.87 in West 4.3 mph 8.1 mph 80 % 0.00 in
09:20 69.5 °F 63.1 °F 29.87 in West 3.7 mph 6.0 mph 80 % 0.00 in
09:25 69.8 °F 63.3 °F 29.87 in West 3.6 mph 9.2 mph 80 % 0.00 in
09:30 70.1 °F 62.9 °F 29.87 in WSW 1.7 mph 8.1 mph 78 % 0.00 in
09:35 70.4 °F 62.8 °F 29.86 in West 2.9 mph 6.9 mph 77 % 0.00 in
09:40 70.8 °F 62.9 °F 29.86 in West 3.9 mph 9.2 mph 76 % 0.00 in
09:45 71.3 °F 63.7 °F 29.86 in WSW 3.2 mph 6.9 mph 77 % 0.00 in
09:50 71.9 °F 63.9 °F 29.86 in WSW 3.0 mph 5.8 mph 76 % 0.00 in
09:55 72.6 °F 63.8 °F 29.86 in NW 4.5 mph 10.4 mph 74 % 0.00 in
10:00 73.2 °F 63.6 °F 29.86 in SW 5.8 mph 10.4 mph 72 % 0.00 in
10:05 73.6 °F 64.0 °F 29.86 in SW 5.6 mph 10.0 mph 72 % 0.00 in
10:10 73.9 °F 63.9 °F 29.86 in WNW 3.9 mph 5.8 mph 71 % 0.00 in
10:15 74.0 °F 64.0 °F 29.86 in SSW 4.7 mph 9.2 mph 71 % 0.00 in
10:20 74.0 °F 64.0 °F 29.86 in WSW 5.3 mph 9.0 mph 71 % 0.00 in
10:25 73.9 °F 63.5 °F 29.86 in SW 5.7 mph 9.2 mph 70 % 0.00 in
10:30 73.9 °F 63.9 °F 29.86 in West 2.5 mph 6.9 mph 71 % 0.00 in
10:35 74.0 °F 64.0 °F 29.85 in SW 2.7 mph 7.0 mph 71 % 0.00 in
10:40 74.1 °F 64.1 °F 29.86 in WSW 3.3 mph 10.4 mph 71 % 0.00 in
10:45 74.2 °F 64.6 °F 29.86 in WNW 2.5 mph 5.8 mph 72 % 0.00 in
10:50 74.4 °F 64.8 °F 29.86 in WSW 5.8 mph 8.1 mph 72 % 0.00 in
10:55 74.8 °F 64.8 °F 29.86 in West 4.9 mph 8.0 mph 71 % 0.00 in
11:00 75.4 °F 65.3 °F 29.85 in West 3.5 mph 8.1 mph 71 % 0.00 in
11:05 76.0 °F 65.1 °F 29.86 in West 3.8 mph 8.1 mph 69 % 0.00 in
11:10 76.7 °F 66.2 °F 29.85 in SW 6.6 mph 9.2 mph 70 % 0.00 in
11:16 77.4 °F 66.0 °F 29.85 in WSW 6.0 mph 12.0 mph 68 % 0.00 in
11:21 78.0 °F 66.6 °F 29.85 in WSW 2.0 mph 8.0 mph 68 % 0.00 in
11:26 78.7 °F 65.5 °F 29.85 in WSW 5.5 mph 13.8 mph 64 % 0.00 in
11:31 79.2 °F 66.0 °F 29.85 in WSW 6.0 mph 12.0 mph 64 % 0.00 in
11:36 79.6 °F 65.9 °F 29.85 in WSW 5.0 mph 10.0 mph 63 % 0.00 in
11:41 80.0 °F 66.3 °F 29.85 in WSW 6.0 mph 10.0 mph 63 % 0.00 in
11:46 80.5 °F 66.7 °F 29.84 in WSW 4.6 mph 8.1 mph 63 % 0.00 in
11:51 80.9 °F 66.7 °F 29.84 in WSW 2.7 mph 4.6 mph 62 % 0.00 in
11:56 81.4 °F 68.1 °F 29.83 in WSW 4.9 mph 10.4 mph 64 % 0.00 in
12:01 81.9 °F 68.1 °F 29.83 in West 4.6 mph 8.1 mph 63 % 0.00 in
12:06 82.2 °F 66.4 °F 29.83 in WNW 5.3 mph 10.4 mph 59 % 0.00 in
12:11 82.5 °F 67.7 °F 29.83 in SW 4.8 mph 7.0 mph 61 % 0.00 in
12:16 82.8 °F 68.9 °F 29.83 in SW 6.1 mph 11.5 mph 63 % 0.00 in
12:21 83.1 °F 67.3 °F 29.83 in SW 2.4 mph 9.0 mph 59 % 0.00 in
12:26 83.4 °F 66.6 °F 29.82 in SSW 0.5 mph 2.3 mph 57 % 0.00 in
12:31 83.7 °F 66.8 °F 29.83 in WSW 4.6 mph 6.9 mph 57 % 0.00 in
12:36 83.8 °F 65.9 °F 29.83 in West 3.1 mph 7.0 mph 55 % 0.00 in
12:41 83.8 °F 66.4 °F 29.82 in SSW 4.1 mph 10.4 mph 56 % 0.00 in
12:46 83.8 °F 66.4 °F 29.82 in SW 3.3 mph 5.8 mph 56 % 0.00 in
12:51 83.9 °F 66.5 °F 29.82 in WSW 5.7 mph 8.1 mph 56 % 0.00 in
12:56 84.0 °F 66.6 °F 29.82 in SSW 5.2 mph 8.1 mph 56 % 0.00 in
13:01 84.1 °F 67.2 °F 29.82 in SW 2.7 mph 6.9 mph 57 % 0.00 in
13:06 84.2 °F 66.3 °F 29.82 in South 3.6 mph 8.1 mph 55 % 0.00 in
13:11 84.4 °F 67.0 °F 29.83 in WNW 2.3 mph 4.6 mph 56 % 0.00 in
13:16 84.7 °F 68.8 °F 29.83 in West 0.5 mph 3.5 mph 59 % 0.00 in
13:21 85.0 °F 68.1 °F 29.83 in NW 3.1 mph 6.9 mph 57 % 0.00 in
13:27 85.1 °F 66.6 °F 29.83 in West 1.0 mph 3.5 mph 54 % 0.00 in
13:32 85.2 °F 67.2 °F 29.82 in WNW 3.8 mph 5.8 mph 55 % 0.00 in
13:37 85.2 °F 66.7 °F 29.82 in NW 2.1 mph 8.1 mph 54 % 0.00 in
13:42 85.2 °F 67.2 °F 29.82 in WNW 1.9 mph 4.6 mph 55 % 0.00 in
13:47 85.3 °F 65.7 °F 29.82 in West 6.6 mph 11.5 mph 52 % 0.00 in
13:52 85.3 °F 65.7 °F 29.82 in NW 2.9 mph 11.5 mph 52 % 0.00 in
13:57 85.3 °F 65.7 °F 29.83 in WNW 4.7 mph 8.1 mph 52 % 0.00 in
14:02 85.4 °F 66.3 °F 29.82 in WNW 1.8 mph 8.1 mph 53 % 0.00 in
14:07 85.5 °F 64.7 °F 29.82 in NW 8.3 mph 11.5 mph 50 % 0.00 in
14:12 85.2 °F 64.5 °F 29.82 in WSW 2.5 mph 8.1 mph 50 % 0.00 in
14:17 85.0 °F 66.0 °F 29.82 in WNW 2.2 mph 4.0 mph 53 % 0.00 in
14:22 84.6 °F 64.5 °F 29.82 in WSW 4.2 mph 8.0 mph 51 % 0.00 in
14:27 84.1 °F 64.6 °F 29.82 in West 4.2 mph 9.0 mph 52 % 0.00 in
14:32 83.6 °F 64.1 °F 29.82 in West 3.9 mph 6.9 mph 52 % 0.00 in
14:37 83.0 °F 64.6 °F 29.82 in WNW 5.0 mph 6.0 mph 54 % 0.00 in
14:42 82.2 °F 63.9 °F 29.82 in WNW 3.2 mph 11.5 mph 54 % 0.00 in
14:47 81.6 °F 64.4 °F 29.82 in NW 4.2 mph 9.2 mph 56 % 0.00 in
14:52 81.0 °F 64.8 °F 29.82 in NW 1.1 mph 6.9 mph 58 % 0.00 in
14:57 80.7 °F 65.0 °F 29.82 in NW 2.6 mph 5.0 mph 59 % 0.00 in
15:02 80.5 °F 65.8 °F 29.81 in WNW 2.9 mph 8.1 mph 61 % 0.00 in
15:07 80.4 °F 67.1 °F 29.82 in NW 1.7 mph 6.0 mph 64 % 0.00 in
15:12 80.3 °F 66.6 °F 29.82 in WNW 4.3 mph 4.3 mph 63 % 0.00 in
15:17 80.3 °F 66.1 °F 29.81 in NW 3.7 mph 8.1 mph 62 % 0.00 in
15:22 80.3 °F 66.6 °F 29.82 in WNW 5.7 mph 8.0 mph 63 % 0.00 in
15:27 80.5 °F 66.7 °F 29.82 in West 2.9 mph 6.9 mph 63 % 0.00 in
15:32 80.5 °F 66.3 °F 29.82 in West 2.9 mph 6.9 mph 62 % 0.00 in
15:37 80.5 °F 65.3 °F 29.82 in West 3.4 mph 6.9 mph 60 % 0.00 in
15:42 80.5 °F 65.3 °F 29.82 in West 2.6 mph 8.1 mph 60 % 0.00 in
15:47 80.3 °F 64.7 °F 29.82 in WNW 4.9 mph 9.2 mph 59 % 0.00 in
15:52 80.1 °F 64.5 °F 29.82 in West 4.2 mph 11.5 mph 59 % 0.00 in
15:57 79.8 °F 65.2 °F 29.82 in NW 6.6 mph 8.1 mph 61 % 0.00 in
16:02 79.5 °F 65.8 °F 29.82 in NW 3.5 mph 8.1 mph 63 % 0.00 in
16:07 79.1 °F 65.9 °F 29.82 in NNW 0.7 mph 3.5 mph 64 % 0.00 in
16:12 78.9 °F 65.7 °F 29.82 in WNW 1.3 mph 4.6 mph 64 % 0.00 in
16:17 78.4 °F 64.8 °F 29.82 in WNW 2.5 mph 4.6 mph 63 % 0.00 in
16:22 78.2 °F 65.0 °F 29.83 in NW 3.8 mph 6.9 mph 64 % 0.00 in
16:27 77.8 °F 64.2 °F 29.82 in NW 4.4 mph 8.1 mph 63 % 0.00 in
16:32 77.6 °F 64.9 °F 29.82 in WNW 1.8 mph 4.0 mph 65 % 0.00 in
16:38 77.4 °F 65.1 °F 29.83 in WSW 2.6 mph 4.0 mph 66 % 0.00 in
16:43 77.3 °F 65.5 °F 29.83 in NNW 2.4 mph 6.0 mph 67 % 0.00 in
16:48 77.0 °F 65.2 °F 29.83 in NNW 0.9 mph 6.9 mph 67 % 0.00 in
16:53 76.8 °F 65.4 °F 29.83 in WNW 1.4 mph 3.5 mph 68 % 0.00 in
16:58 76.6 °F 64.4 °F 29.83 in NNW 1.3 mph 3.5 mph 66 % 0.00 in
17:03 76.5 °F 64.7 °F 29.83 in West 2.2 mph 4.6 mph 67 % 0.00 in
17:08 76.4 °F 65.1 °F 29.83 in WNW 3.3 mph 4.6 mph 68 % 0.00 in
17:13 76.4 °F 65.5 °F 29.83 in West 4.3 mph 6.0 mph 69 % 0.00 in
17:18 76.6 °F 65.7 °F 29.83 in WNW 0.6 mph 3.5 mph 69 % 0.00 in
17:23 76.7 °F 66.2 °F 29.83 in NW 1.2 mph 3.5 mph 70 % 0.00 in
17:28 76.7 °F 65.8 °F 29.83 in NW 1.5 mph 4.6 mph 69 % 0.00 in
17:33 76.7 °F 65.3 °F 29.83 in NNW 3.5 mph 5.8 mph 68 % 0.00 in
17:38 76.7 °F 65.3 °F 29.83 in North 5.7 mph 9.2 mph 68 % 0.00 in
17:43 76.6 °F 65.7 °F 29.83 in North 1.9 mph 4.0 mph 69 % 0.00 in
17:48 76.3 °F 65.4 °F 29.84 in NNE 2.8 mph 5.8 mph 69 % 0.00 in
17:53 76.0 °F 65.1 °F 29.84 in NNE 3.5 mph 4.6 mph 69 % 0.00 in
17:58 75.4 °F 64.5 °F 29.84 in NNE 3.9 mph 6.0 mph 69 % 0.00 in
18:03 75.1 °F 64.6 °F 29.84 in NNE 1.9 mph 4.6 mph 70 % 0.00 in
18:08 74.8 °F 63.9 °F 29.84 in North 4.4 mph 5.0 mph 69 % 0.00 in
18:13 74.5 °F 64.1 °F 29.84 in NNW 4.1 mph 6.0 mph 70 % 0.00 in
18:18 74.2 °F 63.8 °F 29.84 in NNE 2.9 mph 6.9 mph 70 % 0.00 in
18:23 74.0 °F 63.6 °F 29.84 in NW 0.9 mph 4.6 mph 70 % 0.00 in
18:28 73.8 °F 63.8 °F 29.84 in NNE 3.2 mph 5.8 mph 71 % 0.00 in
18:33 73.6 °F 64.0 °F 29.84 in SSE 0.5 mph 3.5 mph 72 % 0.00 in
18:38 73.5 °F 63.5 °F 29.84 in NW 2.2 mph 4.6 mph 71 % 0.00 in
18:43 73.3 °F 62.9 °F 29.84 in NNW 1.7 mph 3.5 mph 70 % 0.00 in
18:48 73.1 °F 63.1 °F 29.85 in NW 0.7 mph 2.3 mph 71 % 0.00 in
18:53 73.0 °F 63.0 °F 29.85 in NW 2.6 mph 6.9 mph 71 % 0.00 in
18:58 72.8 °F 62.4 °F 29.85 in NNE 2.2 mph 3.5 mph 70 % 0.00 in
19:04 72.5 °F 62.6 °F 29.85 in ENE 1.2 mph 3.5 mph 71 % 0.00 in
19:09 72.4 °F 62.5 °F 29.85 in NNE 2.8 mph 5.0 mph 71 % 0.00 in
19:14 72.2 °F 62.3 °F 29.85 in North 0.8 mph 2.3 mph 71 % 0.00 in
19:19 72.0 °F 62.1 °F 29.86 in North 1.7 mph 3.5 mph 71 % 0.00 in
19:24 71.9 °F 62.0 °F 29.86 in Calm   1.2 mph 71 % 0.00 in
19:29 71.8 °F 61.9 °F 29.86 in NNW 0.3 mph 2.3 mph 71 % 0.00 in
19:31 71.8 °F 62.3 °F 29.86 in NW 0.6 mph 4.6 mph 72 % 0.00 in
19:36 71.7 °F 61.8 °F 29.86 in North 2.1 mph 4.6 mph 71 % 0.00 in
19:41 71.6 °F 61.7 °F 29.86 in WNW 1.9 mph 10.4 mph 71 % 0.00 in
19:46 71.4 °F 61.1 °F 29.87 in North 2.5 mph 6.0 mph 70 % 0.00 in
19:56 71.0 °F 58.2 °F 29.87 in NNE 1.1 mph 4.6 mph 64 % 0.00 in
20:06 70.8 °F 56.7 °F 29.87 in NNW 2.1 mph 3.5 mph 61 % 0.00 in
20:11 70.8 °F 56.7 °F 29.87 in NW 2.0 mph 3.5 mph 61 % 0.00 in
20:16 70.7 °F 56.6 °F 29.88 in North 2.9 mph 5.8 mph 61 % 0.00 in
20:21 70.6 °F 56.5 °F 29.88 in NNE 1.0 mph 3.0 mph 61 % 0.00 in
20:26 70.5 °F 56.4 °F 29.88 in NNW 2.5 mph 6.9 mph 61 % 0.00 in
20:31 70.4 °F 56.3 °F 29.88 in NNE 0.3 mph 1.2 mph 61 % 0.00 in
20:36 70.4 °F 56.8 °F 29.89 in Calm     62 % 0.00 in
20:41 70.3 °F 57.1 °F 29.89 in NNW 1.9 mph 5.8 mph 63 % 0.00 in
20:46 70.2 °F 57.4 °F 29.89 in NW 0.3 mph 3.5 mph 64 % 0.00 in
20:51 70.1 °F 57.8 °F 29.89 in North 0.4 mph 2.3 mph 65 % 0.00 in
20:56 69.9 °F 57.6 °F 29.88 in Calm   1.2 mph 65 % 0.00 in
21:01 69.9 °F 57.6 °F 29.88 in North 0.3 mph 2.3 mph 65 % 0.00 in
21:02 69.8 °F 57.5 °F 29.88 in Calm   1.2 mph 65 % 0.00 in
21:07 69.7 °F 57.4 °F 29.89 in Calm     65 % 0.00 in
21:12 69.6 °F 57.3 °F 29.89 in Calm   3.5 mph 65 % 0.00 in
21:17 69.5 °F 56.8 °F 29.89 in North 0.1 mph 1.0 mph 64 % 0.00 in
21:22 69.3 °F 57.0 °F 29.89 in NW 1.1 mph 4.6 mph 65 % 0.00 in
21:27 69.2 °F 57.4 °F 29.89 in WNW 2.4 mph 5.8 mph 66 % 0.00 in
21:32 69.0 °F 55.4 °F 29.90 in North 1.4 mph 5.8 mph 62 % 0.00 in
21:37 68.9 °F 55.8 °F 29.90 in North 0.5 mph 4.0 mph 63 % 0.00 in
21:42 68.8 °F 54.8 °F 29.90 in North 3.6 mph 11.5 mph 61 % 0.00 in
21:47 68.9 °F 54.9 °F 29.90 in NE 3.8 mph 8.1 mph 61 % 0.00 in
21:52 69.0 °F 55.0 °F 29.90 in WNW 4.3 mph 8.0 mph 61 % 0.00 in
21:57 69.0 °F 55.9 °F 29.90 in NNE 1.3 mph 5.8 mph 63 % 0.00 in
22:02 68.9 °F 55.8 °F 29.90 in NNW 2.8 mph 7.0 mph 63 % 0.00 in
22:08 68.9 °F 56.2 °F 29.91 in NNW 0.8 mph 8.1 mph 64 % 0.00 in
22:13 68.9 °F 56.2 °F 29.91 in North 3.3 mph 10.4 mph 64 % 0.00 in
22:18 68.8 °F 56.6 °F 29.91 in North 2.4 mph 5.8 mph 65 % 0.00 in
22:23 68.6 °F 56.4 °F 29.91 in NNE 2.6 mph 4.0 mph 65 % 0.00 in
22:28 68.5 °F 55.4 °F 29.91 in ENE 5.1 mph 8.0 mph 63 % 0.00 in
22:33 68.4 °F 55.7 °F 29.91 in NE 4.8 mph 8.1 mph 64 % 0.00 in
22:38 68.2 °F 55.1 °F 29.91 in North 6.3 mph 13.8 mph 63 % 0.00 in
22:43 68.1 °F 55.0 °F 29.91 in North 5.6 mph 9.2 mph 63 % 0.00 in
22:48 68.0 °F 55.4 °F 29.91 in NE 3.8 mph 7.0 mph 64 % 0.00 in
22:53 68.0 °F 55.4 °F 29.91 in NNW 1.1 mph 4.6 mph 64 % 0.00 in
22:58 67.8 °F 55.2 °F 29.92 in NNW 4.1 mph 8.1 mph 64 % 0.00 in
23:03 67.7 °F 55.1 °F 29.92 in North 4.7 mph 8.0 mph 64 % 0.00 in
23:08 67.6 °F 55.4 °F 29.92 in NE 2.1 mph 8.1 mph 65 % 0.00 in
23:15 67.4 °F 55.2 °F 29.92 in NNE 4.1 mph 8.1 mph 65 % 0.00 in
23:20 67.2 °F 55.5 °F 29.92 in West 1.7 mph 4.0 mph 66 % 0.00 in
23:25 67.0 °F 54.8 °F 29.93 in NNE 3.6 mph 8.1 mph 65 % 0.00 in
23:26 67.0 °F 54.8 °F 29.93 in North 2.5 mph 4.6 mph 65 % 0.00 in
23:28 66.9 °F 54.7 °F 29.93 in North 4.3 mph 10.4 mph 65 % 0.00 in
23:31 66.8 °F 54.2 °F 29.93 in NNE 6.0 mph 10.0 mph 64 % 0.00 in
23:32 66.7 °F 53.7 °F 29.93 in NE 4.3 mph 10.4 mph 63 % 0.00 in
23:37 66.6 °F 54.0 °F 29.93 in NNW 3.8 mph 8.1 mph 64 % 0.00 in
23:42 66.4 °F 53.4 °F 29.93 in NNE 5.1 mph 11.0 mph 63 % 0.00 in
23:47 66.3 °F 53.8 °F 29.93 in NE 3.1 mph 9.0 mph 64 % 0.00 in
23:52 66.2 °F 53.7 °F 29.93 in North 5.2 mph 12.0 mph 64 % 0.00 in
23:57 66.1 °F 54.0 °F 29.93 in North 7.7 mph 16.0 mph 65 % 0.00 in
Crab Meadow Weather
Compliments of Weather Underground - 3 mb

Script developed by  Jim McMurry - jmcmurry@mwt.net Adapted for the template by  Wim van der Kuil - Leuven-Template.eu

Clouds: Partly sunny and partly cloudy indicate the same amount of cloud coverage - about 50 percent. Partly sunny is used during the daytime, and partly cloudy is used at night when there is no sun.